User: anonymous   Login
Location: ActonStarParty
(42.4766°N, 71.4538°W)
Time: 03:17:23
(UTC-05:00)
Language:

Cosmos 1300 - Orbit

View from above orbital plane
View from above orbital plane
View from above satellite
View from above satellite

Ground track
Ground track

The orbit data is extracted from the following two-line orbital elements,

1 12785U 81082A   15028.04958031  .00003283  00000-0  18329-3 0  9204
2 12785 082.5042 212.8511 0002129 042.6641 078.6617 15.13227417819908
Epoch (UTC): 28 January 2015 01:11:23
Eccentricity: 0.0002129
inclination: 82.5042°
perigee height: 525 km
apogee height: 528 km
right ascension of ascending node: 212.8511°
argument of perigee: 42.6641°
revolutions per day: 15.13227417
mean anomaly at epoch: 78.6617°
orbit number at epoch: 81990

The dashed part of the orbit path shows where the satellite is in the earth's shadow,  

DLR